Home   Weather   Niš   Past weeks

Flag for Serbia Past Weather in Niš, Serbia — Yesterday and Last 2 Weeks

Now
34 °F

Fog.


Feels Like: 30 °F
Forecast: 38 / 56 °F
Wind: 5 mph from West

Location: Nis Airport

Current Time: Feb 21, 2017 at 11:09:21 am

Latest Report: Feb 21, 2017 at 10:30 am


Visibility: 2 mi

Pressure: 30.12 "Hg

Humidity: 87%

Dew Point: 30 °F

Location of NišLocation

Past Weather in Niš — Graph

°F

Niš Temperature Yesterday

Maximum temperature yesterday: 41 °F (at 2:30 pm)
Minimum temperature yesterday: 28 °F (at 8:30 pm)
Average temperature yesterday: 34 °F

High & Low Weather Summary for the Past Weeks

 TemperatureHumidityPressure
High64 °F (Feb 6, 1:00 pm)100% (Feb 19, 3:30 am)30.66 "Hg (Feb 19, 3:30 am)
Low16 °F (Feb 14, 6:30 am)35% (Feb 16, 3:30 pm)29.68 "Hg (Feb 6, 1:30 pm)
Average34 °F74%30.31 "Hg
* Reported Feb 6 10:00 am — Feb 21 10:00 am, Niš, Weather by CustomWeather, © 2017

Note: Actual official high and low records may vary slightly from our data, if they occured in-between our weather recording intervals... More about our weather records

Advertising

Niš Weather History for the Previous 24 Hours

Scroll right to see more
 ConditionsComfort  
Time TempWeatherWind HumidityBarometerVisibility
10:00 am
Tue, Feb 21
34 °FFog.2 mph87%30.12 "Hg1 mi
9:30 am30 °FIce fog.5 mph93%30.12 "Hg1 mi
9:00 am28 °FIce fog.5 mph93%30.15 "Hg1 mi
8:30 am28 °FIce fog.1 mph93%30.15 "Hg1 mi
8:00 am28 °FIce fog.5 mph93%30.15 "Hg1 mi
7:30 am27 °FIce fog.7 mph100%30.15 "Hg1 mi
7:00 am27 °FIce fog.6 mph100%30.15 "Hg1 mi
6:30 am28 °FIce fog.7 mph93%30.15 "Hg1 mi
6:00 am28 °FIce fog.5 mph93%30.15 "Hg2 mi
5:00 am28 °FIce fog.2 mph100%30.15 "Hg2 mi
4:30 am28 °FIce fog.2 mph93%30.15 "Hg2 mi
4:00 am28 °FIce fog.2 mph93%30.15 "Hg2 mi
3:30 am28 °FIce fog.3 mph93%30.15 "Hg2 mi
3:00 am27 °FIce fog.3 mph93%30.15 "Hg2 mi
2:30 am28 °FIce fog.5 mph93%30.18 "Hg2 mi
2:00 am28 °FIce fog.3 mph93%30.18 "Hg2 mi
1:30 am28 °FIce fog.2 mph93%30.18 "Hg2 mi
1:00 am28 °FIce fog.5 mph93%30.18 "Hg2 mi
12:30 am28 °FIce fog.5 mph93%30.18 "Hg2 mi
12:00 am30 °FIce fog.3 mph93%30.18 "Hg2 mi
11:30 pm
Mon, Feb 20
30 °FIce fog.5 mph93%30.18 "Hg2 mi
11:00 pm30 °FIce fog.3 mph93%30.21 "Hg1 mi
10:30 pm28 °FIce fog.3 mph100%30.21 "Hg1 mi
10:00 pm28 °FIce fog.2 mph100%30.21 "Hg1 mi
9:30 pm28 °FIce fog.2 mph100%30.21 "Hg1 mi
9:00 pm30 °FIce fog.1 mph93%30.21 "Hg2 mi
8:30 pm28 °FIce fog.1 mph100%30.21 "Hg2 mi
8:00 pm34 °FFog.1 mph87%30.21 "Hg2 mi
7:30 pm32 °FIce fog.3 mph93%30.21 "Hg3 mi
7:00 pm32 °FIce fog.1 mph93%30.21 "Hg3 mi
6:30 pm32 °FIce fog.1 mph87%30.21 "Hg3 mi
6:00 pm34 °FClear.2 mph87%30.21 "Hg4 mi
5:30 pm36 °FPassing clouds.2 mph87%30.21 "Hg4 mi
5:00 pm37 °FPassing clouds.1 mph81%30.21 "Hg4 mi
4:30 pm39 °FScattered clouds.1 mph75%30.21 "Hg4 mi
4:00 pm39 °FPartly sunny.3 mph75%30.21 "Hg5 mi
3:30 pm39 °FScattered clouds.3 mph75%30.21 "Hg5 mi
3:00 pm39 °FScattered clouds.2 mph75%30.21 "Hg5 mi
2:30 pm41 °FScattered clouds.3 mph70%30.21 "Hg4 mi
2:00 pm39 °FPartly sunny.3 mph75%30.21 "Hg4 mi
1:30 pm39 °FPartly sunny.6 mph75%30.24 "Hg4 mi
1:00 pm37 °FPartly sunny.8 mph81%30.24 "Hg4 mi
12:30 pm37 °FMostly cloudy.7 mph81%30.24 "Hg4 mi
12:00 pm37 °FFog.6 mph81%30.24 "Hg3 mi
11:30 am36 °FFog.6 mph87%30.24 "Hg3 mi
11:00 am36 °FFog.6 mph87%30.24 "Hg3 mi
Weather by CustomWeather, © 2017

See weather overviewHow to use our weather pages